map of ETNW home
Great Circle Mapper logo
ETNW - Airport
Location
City:  Wunstorf, Lower Saxony, Germany
ICAO:ETNW

Details
Type:Airport (Flugplatz, Airfield)
Use:Military
Latitude:5227'26"N (52.457333)
Longitude:925'38"E (9.427150)
Elevation:187 ft (57 m)
Variation:2.20E (WMM2015 magnetic declination)
0.14 annual change
Runways:3
Longest:6157 × 153 ft (1877 × 46.5 m), paved

Time
Time Zone:UTC+1 (DST+2)
Local Time:

Weather
METAR:ETNW 261357Z 22014KT 4300 -DZRA BR FEW007 BKN008 04/03 Q1014 GRN GRN TEMPO YLO
TAF:ETNW 252310Z 2600/2612 24007KT 5000 BR SCT008 BKN020
TEMPO 2600/2606 22005KT 3000 BR BKN004
TEMPO 2606/2612 20010KT 4000 -DZRA BKN008 BY ETGL

Related Locations
Nearby:
Farthest:CHT: 11775 mi / 18951 km
Waitangi [Tuuta], Chatham Islands, NZ

Find:

   beyond  
but within

Other Information
Maps:
NOTAMs:
Links:
Sources:

  
flag of Germany
flag of Lower Saxony
  

Sectional Chart

Flight Planning
at skyvector.com

Satellite Image

Google Maps Satellite View

 

Copyright © 2004-2015 Karl L. Swartz. All rights reserved.
The Great Circle Mapper name and logo are trademarks of the Great Circle Mapper.
All other trademarks mentioned herein belong to their respective owners.
Please see credits for attibutions and further copyright information.

  Follow gcmap on Facebook Follow gcmap on Twitter

hCard Microformat

Geo Microformat